Skip Page Navigation
NASA JPL Caltech
NASA Logo - Jet Propulsion Laboratory + View the NASA Portal
+ Center for Near-Earth Object Studies
JPL Home Earth Solar System Stars & Galaxies Technology
JPL Solar System Dynamics
BODIES ORBITS EPHEMERIDES TOOLS PHYSICAL DATA DISCOVERY FAQ SITE MAP
IMPORTANT: The SSD Announcement email list is now available. Major changes are coming in the near future, including possible hostname and/or URL changes. To be notified of such changes, subscribe to this email list.

Please visit this page for more details.


JPL Small-Body Database Browser
Search: [ help ]  
52015 (2002 NG17)
Classification: Main-belt Asteroid          SPK-ID: 2052015
Ephemeris | Orbit Diagram | Orbital Elements | Mission Design | Physical Parameters | Discovery Circumstances | Close-Approach Data ]

[ show orbit diagram ]
Orbital Elements at Epoch 2459000.5 (2020-May-31.0) TDB
Reference: JPL 22 (heliocentric ecliptic J2000)
 Element Value Uncertainty (1-sigma)   Units 
e .267019552215958 4.8113e-08  
a 2.339139489390508 1.4883e-08 au
q 1.71454351036279 1.1284e-07 au
i 25.10567481463683 6.0097e-06 deg
node 169.4495626666186 1.0879e-05 deg
peri 230.956091676897 1.4808e-05 deg
M 280.0282788281365 1.41e-05 deg
tp 2459290.779622999740
(2021-Mar-17.27962300)
5.3027e-05 TDB
period 1306.720209951827
3.58
1.2471e-05
3.414e-08
d
yr
n .2754989149615062 2.6293e-09 deg/d
Q 2.963735468418225 1.8857e-08 au
  Orbit Determination Parameters
   # obs. used (total)      785  
   data-arc span      8071 days (22.10 yr)  
   first obs. used      1997-04-03  
   last obs. used      2019-05-09  
   planetary ephem.      DE431  
   SB-pert. ephem.      SB431-N16  
   condition code      0  
   norm. resid. RMS      .52807  
   source      ORB  
   producer      Otto Matic  
   solution date      2019-May-30 04:46:18  

Additional Information
 Earth MOID = .789209 au 
 Jupiter MOID = 2.67647 au 
 T_jup = 3.395 
[ show covariance matrix ]

Ephemeris | Orbit Diagram | Orbital Elements | Mission Design | Physical Parameters | Discovery Circumstances | Close-Approach Data ]

Physical Parameter Table
Parameter Symbol Value Units Sigma Reference Notes
absolute magnitude H 14.7   n/a MPO337674  
diameter diameter 3.469 km 0.908 urn:nasa:pds:neowise_diameters_albedos::2.0[mainbelt] (http://adsabs.harvard.edu/abs/2012ApJ...759L...8M)  
geometric albedo albedo 0.212   0.135 urn:nasa:pds:neowise_diameters_albedos::2.0[mainbelt] (http://adsabs.harvard.edu/abs/2012ApJ...759L...8M)  

52015 (2002 NG17)          Discovered 2002-Jul-13 by LINEAR at Socorro
Reference: 20021120/Numbers.arcLast Updated: 2004-04-19

[ show close-approach data ]
Ephemeris | Orbit Diagram | Orbital Elements | Mission Design | Physical Parameters | Discovery Circumstances | Close-Approach Data ]
ABOUT SSD CREDITS/AWARDS PRIVACY/COPYRIGHT GLOSSARY LINKS
FirstGov 2020-Feb-19 08:38 UT
(server date/time)  
NASA Home Page
Site Manager:   Ryan S. Park
Webmaster  Alan B. Chamberlin